Tracking 26935 objects as of 4-Feb-2023
HD Live streaming from Space Station
objects crossing your sky now

STARLINK-3640

Track STARLINK-3640 now!
10-day predictions
STARLINK-3640 is classified as:


NORAD ID: 51988
Int'l Code: 2022-025AJ
Perigee: 546.0 km
Apogee: 547.7 km
Inclination: 53.2 °
Period: 95.4 minutes
Semi major axis: 6917 km
RCS: Unknown
Launch date: March 9, 2022
Source: United States (US)
Launch site: AIR FORCE EASTERN TEST RANGE (AFETR)
Your satellite tracking list
Your tracking list is empty




NASA's NSSDC Master Catalog

Two Line Element Set (TLE):
1 51988U 22025AJ  23034.50817836  .00000322  00000-0  38324-4 0  9993
2 51988  53.2152  72.7098 0001247 101.0630 259.0503 15.08848503 51551
Source of the keplerian elements: AFSPC